Homestead AFB, FL

9:10 PM EDT on April 24, 2017 (GMT -0400)
Dade County-Homestead Regional

Weather History for KHST - August, 2014

Change the Weather History Date:

Friday, August 15, 2014

  Actual Average Record
Temperature  
Mean Temperature 85 °F -  
Max Temperature 92 °F 90 °F 97 °F (1941)
Min Temperature 77 °F 72 °F 67 °F (1943)
Cooling Degree Days 20    
Growing Degree Days 35 (Base 50)    
Moisture  
Dew Point 74 °F    
Average Humidity 75    
Maximum Humidity 94    
Minimum Humidity 55    
Precipitation  
Precipitation 0.00 in - - ()
Sea Level Pressure  
Sea Level Pressure 30.05 in    
Wind  
Wind Speed 4 mph (WSW)    
Max Wind Speed 18 mph    
Max Gust Speed 24 mph    
Visibility 10 miles    
Events Thunderstorm    
Averages and records for this station are not official NWS values.
T = Trace of Precipitation, MM = Missing Value Source: NWS Daily Summary

Daily Weather History Graph

Daily Weather History Graph

Search for Another Location

Airport or City:

Trip Planner

Search our weather history database for the weather conditions in past years. The results will help you decide how hot, cold, wet, or windy it might be!

Date:

Astronomy

Aug. 15, 2014 Rise Set
Actual Time 6:54 AM EDT 7:56 PM EDT
Civil Twilight 6:30 AM EDT 8:20 PM EDT
Nautical Twilight 6:02 AM EDT 8:48 PM EDT
Astronomical Twilight 5:33 AM EDT 9:17 PM EDT
Moon 11:38 PM EDT (8/15) 11:57 AM EDT (8/15)
Length of Visible Light 13h 49m
Length of Day
13h 01m
Waning Gibbous, 69% of the Moon is Illuminated
Aug 15
Waning Gibbous
Aug 17
Last Quarter
Aug 25
New
Sep 2
First Quarter
Sep 8
Full

Hourly Weather History & Observations

Time (EDT) Temp. Heat Index Dew Point Humidity Pressure Visibility Wind Dir Wind Speed Gust Speed Precip Events Conditions
12:58 AM 78.3 °F - 75.4 °F 91% 30.05 in 10.0 mi Calm Calm - N/A   Clear
1:58 AM 77.9 °F - 76.1 °F 94% 30.03 in 9.0 mi Calm Calm - N/A   Clear
2:58 AM 79.3 °F - 75.0 °F 87% 30.02 in 10.0 mi NW 2.3 mph - N/A   Clear
3:58 AM 77.5 °F - 75.7 °F 94% 30.00 in 9.0 mi WSW 2.3 mph - N/A   Clear
4:58 AM 77.7 °F - 75.4 °F 92% 30.01 in 10.0 mi South 2.3 mph - N/A   Clear
5:58 AM 77.4 °F - 75.0 °F 92% 30.02 in 10.0 mi South 3.5 mph - N/A   Clear
6:58 AM 77.5 °F - 75.6 °F 94% 30.04 in 8.0 mi Calm Calm - N/A   Clear
7:58 AM 80.1 °F 85.4 °F 75.7 °F 87% 30.05 in 9.0 mi Calm Calm - N/A   Clear
8:58 AM 84.4 °F 95.4 °F 78.1 °F 81% 30.06 in 10.0 mi Variable 2.3 mph - N/A   Clear
9:58 AM 87.4 °F 98.2 °F 76.3 °F 69% 30.07 in 10.0 mi SW 5.8 mph - N/A   Partly Cloudy
10:58 AM 89.2 °F 98.4 °F 74.3 °F 61% 30.07 in 9.0 mi South 3.5 mph - N/A   Clear
11:58 AM 90.1 °F 101.2 °F 75.6 °F 62% 30.07 in 9.0 mi SSW 5.8 mph - N/A   Clear
12:58 PM 91.6 °F 100.5 °F 73.2 °F 55% 30.05 in 9.0 mi SSW 10.4 mph - N/A   Clear
1:58 PM 91.8 °F 102.8 °F 74.8 °F 58% 30.03 in 9.0 mi SSW 10.4 mph - N/A   Partly Cloudy
1:59 PM 91.4 °F 102.5 °F 75.2 °F 59% 30.02 in 9.0 mi South 12.7 mph - N/A Thunderstorm Thunderstorm
2:14 PM 93.2 °F 105.0 °F 75.2 °F 56% 30.01 in 10.0 mi SW 12.7 mph 18.4 mph N/A Thunderstorm Partly Cloudy
2:58 PM 90.9 °F 100.6 °F 74.3 °F 58% 30.03 in 10.0 mi SSW 10.4 mph - N/A   Partly Cloudy
3:58 PM 84.0 °F 91.5 °F 74.7 °F 73% 30.03 in 10.0 mi NE 11.5 mph - N/A   Mostly Cloudy
4:58 PM 84.2 °F 90.6 °F 73.0 °F 69% 30.05 in 10.0 mi NNE 5.8 mph - N/A   Clear
5:24 PM 84.2 °F 90.9 °F 73.4 °F 70% 30.04 in 10.0 mi North 5.8 mph - N/A   Light Drizzle
5:41 PM 84.2 °F 92.3 °F 75.2 °F 74% 30.03 in 10.0 mi North 5.8 mph - N/A   Partly Cloudy
5:51 PM 84.2 °F 90.9 °F 73.4 °F 70% 30.04 in 10.0 mi NW 8.1 mph - N/A   Light Drizzle
5:58 PM 84.7 °F 91.7 °F 73.8 °F 69% 30.05 in 10.0 mi WNW 6.9 mph - 0.00 in   Light Drizzle
6:03 PM 84.2 °F 90.9 °F 73.4 °F 70% 30.05 in 10.0 mi WNW 8.1 mph - N/A   Clear
6:58 PM 82.6 °F 88.3 °F 73.2 °F 73% 30.06 in 10.0 mi NNW 18.4 mph 24.2 mph 0.00 in   Scattered Clouds
7:58 PM 79.2 °F - 71.2 °F 77% 30.05 in 10.0 mi NE 3.5 mph - N/A   Clear
8:58 PM 79.3 °F - 71.1 °F 76% 30.08 in 10.0 mi NW 4.6 mph - N/A   Partly Cloudy
9:58 PM 78.3 °F - 72.9 °F 83% 30.10 in 10.0 mi East 2.3 mph - N/A   Partly Cloudy
10:58 PM 78.1 °F - 72.1 °F 82% 30.11 in 10.0 mi WSW 2.3 mph - N/A   Clear